Flag for Germany Weather past 2 weeks in Herten, North Rhine-Westphalia, Germany

Now
45 °F

Overcast.


Feels Like: 43 °F
Forecast: 34 / 51 °F
Wind: 5 mph from North

Location: Essen

Current Time: Apr 28, 2015 at 12:19:31 AM

Latest Report: Apr 27, 2015 at 11:00 PM


Visibility: 37 mi

Pressure: 29.83 "Hg

Humidity: 68%

Dew point: 35 °F

Location of HertenLocation

Historic Weather in Herten — Graph

°F

Herten temperature yesterday

Maximum temperature yesterday: 53 °F (at 12:00 AM)
Minimum temperature yesterday: 44 °F (at 9:00 AM)
Average temperature yesterday: 48 °F

Past Weeks' High & Low Weather Summary

 TemperatureHumidityPressure
High72 °F (Apr 15, 3:00 PM)100% (Apr 26, 3:00 AM)30.48 "Hg (Apr 26, 3:00 AM)
Low38 °F (Apr 19, 8:00 AM)27% (Apr 21, 5:00 PM)29.63 "Hg (Apr 27, 3:00 AM)
Average53 °F66%30.11 "Hg
* Reported Apr 12 11:00 PM — Apr 27 11:00 PM, Herten, Weather by CustomWeather, © 2015

Note: Actual official high and low records may vary slightly from our data, if they occured in-between our weather recording intervals... More about our weather records

Advertising

Herten weather history for previous 24 hours

 ConditionsComfort  
Time TempWeatherWind HumidityBarometerVisibility
11:00 PM
Mon, Apr 27
45 °FOvercast.5 mph68%29.83 "Hg37 mi
10:00 PM47 °FOvercast.5 mph69%29.82 "Hg25 mi
9:00 PM47 °FOvercast.2 mph73%29.80 "Hg22 mi
8:00 PM49 °FOvercast.2 mph68%29.78 "Hg25 mi
7:00 PM49 °FOvercast.3 mph65%29.78 "Hg22 mi
6:00 PM50 °FOvercast.3 mph65%29.77 "Hg31 mi
5:00 PM49 °FOvercast.5 mph65%29.77 "Hg31 mi
4:00 PM48 °FOvercast.6 mph70%29.78 "Hg28 mi
3:00 PM47 °FOvercast.6 mph72%29.78 "Hg25 mi
2:00 PM48 °FOvercast.6 mph69%29.76 "Hg25 mi
1:00 PM47 °FOvercast.6 mph76%29.76 "Hg22 mi
12:00 PM46 °FOvercast.7 mph82%29.75 "Hg14 mi
11:00 AM44 °FLow clouds.6 mph93%29.74 "Hg7 mi
10:00 AM44 °FLow clouds.7 mph97%29.72 "Hg4 mi
9:00 AM44 °FDrizzle. Low clouds.6 mph99%29.70 "Hg2 mi
8:00 AM44 °FLight freezing rain. Low clouds.6 mph100%29.69 "Hg2 mi
7:00 AM45 °FDrizzle. Low clouds.5 mph100%29.67 "Hg2 mi
6:00 AM46 °FDrizzle. Low clouds.5 mph100%29.65 "Hg3 mi
5:00 AM48 °FLight rain. Low clouds.3 mph100%29.63 "Hg2 mi
4:00 AM49 °FLight rain. Low clouds.5 mph100%29.63 "Hg2 mi
3:00 AM50 °FRain. Low clouds.5 mph100%29.63 "Hg1 mi
2:00 AM51 °FRain. Low clouds.5 mph100%29.65 "Hg1 mi
1:00 AM52 °FLight rain. Low clouds.3 mph100%29.66 "Hg1 mi
12:00 AM53 °FLight rain. Low clouds.3 mph97%29.66 "Hg3 mi
Weather by CustomWeather, © 2015

See weather overviewHow to use our weather pages